Location: Les Chemineaux
(47.3024°N, 1.5104°E)
Time: 19:32:44
(UTC+00:00)

Cosmos 44 - Pass Details

Date: 19 May 2025
Orbit: 588 x 763 km, 65.1° (Epoch: 23 June)

Event Time Altitude Azimuth Distance (km) Brightness Sun altitude
Rises 21:15:50 0° 321° (NW) 2,905 8.5 -14.3°
Reaches altitude 10° 21:18:04 10° 320° (NW) 2,018 7.1 -14.5°
Maximum altitude 21:22:37 76° 236° (WSW) 679 3.2 -15.0°
Enters shadow 21:25:21 25° 154° (SSE) 1,333 4.2 -15.2°
